Regional Weather Roundup
Issued by NWS Green Bay, WI

Home | Current Version | Previous Version | Text Only | Print | Product List | Glossary On
Versions: 1 2 3 4 5 6 7 8 9 10 11 12 13 14 15 16 17 18 19 20 21 22 23 24 25 26 27 28 29 30 31 32 33 34 35 36 37 38 39 40 41 42 43 44 45 46 47 48 49 50
000
ASUS43 KGRB 232210
RWRGRB

NORTH-CENTRAL AND NORTHEAST WISCONSIN REGIONAL WEATHER ROUNDUP
NATIONAL WEATHER SERVICE GREEN BAY WI
500 PM CDT WED JUL 23 2014

WIZ005-009-010>012-018-019-232300-
NORTH CENTRAL WISCONSIN

CITY           SKY/WX    TMP DP  RH WIND       PRES   REMARKS
IRONWOOD       NOT AVBL
MANITOWISH WTR PTSUNNY   68  53  58 CALM      30.22F
ARBOR VITAE    MOSUNNY   72  53  50 NW6       30.22S
EAGLE RIVER    MOSUNNY   71  48  43 N5        30.21S
LAND O LAKES   MOSUNNY   71  51  48 N7        30.22F
RHINELANDER    PTSUNNY   72  52  49 VRB5      30.21F
PHILLIPS       PTSUNNY   71  54  54 N7        30.21S
ANTIGO         MOSUNNY   68  50  51 N8        30.20S
TOMAHAWK       PTSUNNY   72  53  52 CALM      30.21S
MERRILL        SUNNY     73  54  49 NW6       30.19F
$$

WIZ013-073-232300-
NORTHEAST WISCONSIN

CITY           SKY/WX    TMP DP  RH WIND       PRES   REMARKS
IRON MOUNTAIN  MOSUNNY   74  46  36 N12       30.18F
MARINETTE      SUNNY     70  48  46 E12       30.17F
OCONTO         MOSUNNY   71  52  52 E7        30.17F
$$

WIZ017-030-035>037-045-232300-
CENTRAL WISCONSIN

CITY           SKY/WX    TMP DP  RH WIND       PRES   REMARKS
MEDFORD        MOSUNNY   73  55  52 N6        30.20F
WAUSAU         PTSUNNY   74  51  44 N7        30.17F
MOSINEE        PTSUNNY   73  54  49 CALM      30.19F
MARSHFIELD     MOSUNNY   77  55  46 N12       30.18F
WISC RAPIDS    MOSUNNY   78  53  41 N7        30.18F
STEVENS POINT  PTSUNNY   75  51  42 N12       30.18F
WAUPACA        MOSUNNY   77  47  34 N5        30.18S
SHAWANO        PTSUNNY   75  50  40 NE7       30.18F
CLINTONVILLE   MOSUNNY   75  46  35 NE9       30.17F
$$

WIZ038-039-048-051-232300-
FOX VALLEY

CITY           SKY/WX    TMP DP  RH WIND       PRES   REMARKS
NWS GREEN BAY  PTSUNNY   73  51  46 NE8       30.17F
APPLETON       MOSUNNY   73  48  40 N12       30.18F
OSHKOSH        PTSUNNY   75  55  49 E10       30.16F
FOND DU LAC    MOSUNNY   75  52  44 NE13      30.17F
$$

WIZ022-050-052-232300-
EAST CENTRAL WISCONSIN

CITY           SKY/WX    TMP DP  RH WIND       PRES   REMARKS
STURGEON BAY   MOSUNNY   72  48  43 NE14      30.18F
MANITOWOC      PTSUNNY   65  51  60 NE8       30.19S
SHEBOYGAN      MOSUNNY   67  51  56 NE15      30.18F
$$

LMZ563-521-522-541>543-232300-
LAKESHORE

STATION/POSITION TIME  TEMP    WIND        PRES    VSBY  WAVE
                       AIR SEA DIR/SP/G                  HT/PER
                 (UTC) (F)     (DEG/KT/KT) (MB)    (MI)  (FT/S)
SHEBOYGAN LKSHOR 2200   58      10/  8/  8 1022.1F
KEWAUNEE LKSHORE 2200   61      30/  4/  7 1022.6F
TWO RIVERS CG    2100   63                   N/A       6   0
NORTHPORT PIER   2200   67     360/ 11/ 12 1021.7F
N MID LAKE BUOY  2200   59 54  320/  8/  8 1021.2F         1/ 4
STURGEON BAY CG  2100   61 64   70/  9     1022.6      6   1
CHAMBERS ISLAND  2200   67      30/ 14/ 16 1022.0F
MENOMINEE LKSHOR 2200   67      40/ 12/ 14 1022.4F
$$


USA.gov is the U.S. government's official web portal to all federal, state and local government web resources and services.